Вернуться в каталог

STARLINK-3990

АктивенСвязьVLEO
NORAD 52626·PAYLOAD·🇺🇸 United States

Запущен May 14, 2022 с Cape Canaveral Space Force Station

Loading…

Ближайшие Пролёты (ближайшие 24 часа)

TLE

СвежийSource: CelesTrak SupGP

Эпоха: Sep 14, 2026, 13:38 UTC

1 52626C 22052AE  26257.56854167  .00032975  00000+0  97437-3 0  2571
2 52626  53.1590 129.1913 0000953  99.5298 240.7087 15.34370863    10

Отслеживайте STARLINK-3990 в реальном времени с AllMySat

Download on the App Store